Location: Glen Waverley
(37.8830°S, 145.1670°E)
Time: 06:09:13
(UTC+10:00)

ISS - Visible Passes

Search period start: 21 May 2025 00:00
Search period end: 31 May 2025 00:00
Orbit: 416 x 419 km, 51.6° (Epoch: 20 May)

Date Brightness Start Highest point End Pass type
(mag) Time Alt. Az. Time Alt. Az. Time Alt. Az.
21 May -1.7 06:11:02 15° SSW 06:11:27 15° SSW 06:13:32 10° SSE visible
22 May -1.1 05:25:12 13° SSE 05:25:12 13° SSE 05:25:49 10° SSE visible
29 May -1.2 06:14:20 10° SSW 06:16:07 13° SSE 06:17:54 10° SE visible
30 May -0.9 05:27:55 11° SSE 05:27:55 11° SSE 05:28:31 10° SSE visible
